Terug naar catalogus

FENGYUN 1C DEB

ActiefPO
NORAD 30641·DEBRIS·🇨🇳 China

Gelanceerd May 10, 1999 vanaf Taiyuan Satellite Launch Center

Loading…

Volgende Passages (komende 24 uur)

TLE

VersSource: Space-Track

Epoch: Sep 14, 2026, 09:48 UTC

1 30641U 99025ANY 26257.40851135  .00004345  00000-0  48552-3 0  9991
2 30641  98.9713 228.7057 0128791 338.1993 174.7025 14.81731653 46115

Volg FENGYUN 1C DEB in realtime met AllMySat

Download on the App Store